Content
SEND FEEDBACK

Daily
Averages
Monthly
Summary
United States of America

ARGONNE, WISCONSIN


Home > North America > United States > Wisconsin
Elevation: 1539 feet     Latitude: 45 46N     Longitude: 088 41W

WEATHER
 
SELECT A DAY
Number of Records: 217,673;   Date Range: 1/1/95 - 11/25/14
 
SHARE

PRINT THIS DATA

[ ← Previous Day ]
WEATHER ALMANAC - JANUARY 31, 2013
[ Next Day → ]
[ °C ]   °F
Weather ElementAverageHighLow
Temperature9.8 °F14 °F (1:54 pm)5 °F (10:41 pm)
Dewpoint3 °F6.8 °F (4:46 am)-0.9 °F (11:54 pm)
Humidity74.3 %85 % (4:46 am)62 % (1:54 pm)
Barometer29.69 in29.99 in (11:54 pm)29.47 in (3:37 am)
Wind Speed11 mph19.6 mph (10:33 am)
Wind Gust27.6 mph (10:33 am)
Weather ElementAverage
Visibility5.1 mi
Wind DirectionNW (315 °)

Weather ElementTotal
Precipitation---
Heating Degree Days55.5 (Base 65)
Averaged from 48 records on January 31, 2013
WEATHER CONDITIONS BREAKOUT
WIND DIRECTION BREAKOUT
WEATHER BY HOUR - JANUARY 31, 2013
[ °C ]   °F
Local TimeTemperatureDewpointHumidityBarometerVisibilityWind DirectionWind SpeedGust SpeedPrecipitationEventsConditions
1:54 AM10.9 °F5.0 °F77 %29.52 in4.0 miNW (310°)10.4 mph0.00 inSnowLight Snow
2:54 AM10.9 °F5.0 °F77 %29.53 in3.0 miWNW (290°)12.7 mph0.00 inSnowLight Snow
3:37 AM10.4 °F5.0 °F79 %29.47 in2.5 miWNW (300°)11.5 mph0.00 inSnowLight Snow
3:49 AM10.4 °F5.0 °F79 %29.47 in4.0 miWNW (300°)10.4 mph0.00 inSnowLight Snow
3:54 AM10.9 °F5.0 °F77 %29.55 in4.0 miWNW (300°)11.5 mph0.00 inSnowLight Snow
4:32 AM10.4 °F5.0 °F79 %29.49 in1.8 miNW (310°)11.5 mph0.00 inSnowLight Snow
4:46 AM10.4 °F6.8 °F85 %29.49 in1.5 miNW (320°)9.2 mph0.00 inSnowLight Snow
4:54 AM10.0 °F6.1 °F84 %29.57 in1.8 miNW (320°)9.2 mph0.00 inSnowLight Snow
5:29 AM8.6 °F5.0 °F85 %29.50 in2.5 miNNW (330°)6.9 mph0.00 inSnowLight Snow
5:40 AM8.6 °F5.0 °F85 %29.50 in3.0 miNW (320°)6.9 mph0.00 inSnowLight Snow
5:47 AM8.6 °F5.0 °F85 %29.50 in4.0 miNW (310°)9.2 mph0.00 inSnowLight Snow
5:54 AM9.0 °F3.9 °F80 %29.58 in7.0 miWNW (300°)10.4 mph0.00 inSnowLight Snow
6:54 AM8.1 °F1.9 °F76 %29.61 in9.0 miNW (310°)11.5 mph0.00 inOvercast
7:30 AM8.6 °F1.4 °F73 %29.55 in9.0 miNW (320°)6.9 mph0.00 inOvercast
7:54 AM7.0 °F3.0 °F84 %29.64 in5.0 miNW (320°)4.6 mph0.00 inOvercast
8:42 AM8.6 °F3.2 °F79 %29.58 in6.0 miNW (310°)6.9 mph0.00 inHaze
8:54 AM9.0 °F3.0 °F77 %29.67 in8.0 miNW (310°)8.1 mph0.00 inOvercast
9:06 AM10.4 °F3.2 °F73 %29.59 in7.0 miWNW (300°)5.8 mphOvercast
9:54 AM10.0 °F1.9 °F70 %29.70 in10.0 miNW (320°)13.8 mph21.9 mph0.00 inOvercast
10:05 AM10.4 °F3.2 °F73 %29.62 in9.0 miNW (320°)11.5 mph0.00 inOvercast
10:33 AM10.4 °F1.4 °F67 %29.64 in4.0 miNW (320°)19.6 mph27.6 mph0.00 inSnowLight Snow
10:54 AM10.9 °F1.9 °F67 %29.72 in3.0 miNNW (330°)15.0 mph23.0 mph0.00 inSnowLight Snow
11:54 AM10.9 °F1.9 °F67 %29.73 in3.0 miNNW (330°)18.4 mph24.2 mph0.00 inSnowLight Snow
12:54 PM12.9 °F3.0 °F65 %29.74 in4.0 miNW (310°)16.1 mph0.00 inSnowLight Snow
1:10 PM12.2 °F3.2 °F67 %29.67 in4.0 miNNW (330°)12.7 mph0.00 inOvercast
1:15 PM12.2 °F3.2 °F67 %29.67 in2.5 miNNW (330°)16.1 mph19.6 mph0.00 inSnowLight Snow
1:30 PM12.2 °F3.2 °F67 %29.67 in7.0 miNNW (340°)13.8 mph0.00 inOvercast
1:54 PM14.0 °F3.0 °F62 %29.76 in10.0 miNNW (340°)11.5 mph24.2 mph0.00 inOvercast
2:32 PM12.2 °F1.4 °F62 %29.70 in2.0 miNNW (330°)12.7 mph0.00 inSnowLight Snow
2:42 PM12.2 °F3.2 °F67 %29.70 in3.0 miNNW (340°)16.1 mph23.0 mph0.00 inSnowLight Snow
2:46 PM10.4 °F3.2 °F73 %29.71 in1.8 miNNW (330°)17.3 mph0.00 inSnowLight Snow
2:54 PM10.9 °F3.9 °F73 %29.79 in2.5 miNNW (340°)13.8 mph21.9 mph0.00 inSnowLight Snow
3:03 PM10.4 °F3.2 °F73 %29.71 in4.0 miNW (320°)16.1 mph0.00 inSnowLight Snow
3:54 PM10.9 °F1.9 °F67 %29.83 in8.0 miNNW (340°)10.4 mph24.2 mph0.00 inOvercast
4:07 PM10.4 °F3.2 °F73 %29.75 in1.8 miNNW (330°)11.5 mph0.00 inSnowLight Snow
4:24 PM10.4 °F3.2 °F73 %29.75 in3.0 miNW (310°)11.5 mph0.00 inSnowLight Snow
4:29 PM10.4 °F3.2 °F73 %29.76 in2.0 miNW (320°)12.7 mph0.00 inSnowLight Snow
4:36 PM10.4 °F3.2 °F73 %29.76 in1.8 miNNW (330°)12.7 mph0.00 inSnowLight Snow
4:41 PM10.4 °F3.2 °F73 %29.76 in3.0 miNW (310°)11.5 mph0.00 inSnowLight Snow
4:54 PM10.0 °F1.0 °F67 %29.85 in7.0 miNW (320°)13.8 mph23.0 mph0.00 inOvercast
5:54 PM9.0 °F1.0 °F70 %29.88 in8.0 miNW (310°)9.2 mph0.00 inOvercast
8:01 PM8.6 °F3.2 °F79 %29.85 in4.0 miWNW (290°)4.6 mph0.00 inSnowLight Snow
8:15 PM8.6 °F3.2 °F79 %29.85 in7.0 miWNW (290°)6.9 mph0.00 inOvercast
8:54 PM7.0 °F1.0 °F77 %29.95 in8.0 miWNW (300°)10.4 mph0.00 inOvercast
9:54 PM6.1 °F0.0 °F76 %29.96 in7.0 miWNW (290°)5.8 mphOvercast
10:41 PM5.0 °F-0.4 °F78 %29.88 in10.0 miWNW (290°)4.6 mphMostly Cloudy
11:10 PM5.0 °F-0.4 °F78 %29.89 in10.0 miWNW (290°)6.9 mphMostly Cloudy
11:54 PM5.0 °F-0.9 °F76 %29.99 in10.0 miWNW (290°)5.8 mphMostly Cloudy
Hourly data recorded from KIMT, located miles away from Argonne, Wisconsin







STORIES FROM OUR PARTNERS